This demonstration page uses our WeatherBlox Daily Observations layout. Learn more.

Hourly Observations for July 1, 2017

Temp ( °F °C ) Dew Point ( °F °C ) Humidity (%) Winds ( mph kmh ) Pressure ( in mb ) Visibility ( mi km ) Precip ( " mm )
12:15 am 00:15 Partly Cloudy 77 25 73 23 89 89 S 7 11 30 1016 10 16.09344 0 0
12:35 am 00:35 Mostly Cloudy 75 24 73 23 94 94 S 6 9 30 1016 10 16.09344 0 0
12:55 am 00:55 Partly Cloudy 75 24 73 23 94 94 SSW 5 7 30 1016 10 16.09344 0 0
1:15 am 01:15 Partly Cloudy 75 24 73 23 94 94 S 5 7 29.97 1015 10 16.09344 0 0
1:35 am 01:35 Clear 75 24 72 22 89 89 SSW 6 9 29.97 1015 10 16.09344 0 0
1:55 am 01:55 Partly Cloudy 73 23 72 22 94 94 SSW 7 11 29.97 1015 10 16.09344 0 0
2:15 am 02:15 Cloudy 75 24 73 23 94 94 SSW 8 13 29.97 1015 10 16.09344 0 0
2:35 am 02:35 Cloudy 75 24 73 23 94 94 S 8 13 29.94 1014 10 16.09344 0 0
2:55 am 02:55 Cloudy 75 24 73 23 94 94 SSW 7 11 29.94 1014 10 16.09344 0 0
3:15 am 03:15 Cloudy 75 24 73 23 94 94 SSW 7 11 29.94 1014 10 16.09344 0 0
3:35 am 03:35 Cloudy 75 24 73 23 94 94 SSW 7 11 29.94 1014 10 16.09344 0 0
3:55 am 03:55 Cloudy 75 24 73 23 94 94 S 10 17 29.94 1014 10 16.09344 0 0
4:15 am 04:15 Cloudy 75 24 73 23 94 94 SSW 7 11 29.94 1014 10 16.09344 0 0
4:35 am 04:35 Cloudy 75 24 73 23 94 94 S 6 9 29.94 1014 10 16.09344 0 0
4:55 am 04:55 Cloudy 75 24 73 23 94 94 SSW 6 9 29.94 1014 10 16.09344 0 0
5:15 am 05:15 Cloudy 75 24 73 23 94 94 S 8 13 29.94 1014 10 16.09344 0 0
5:35 am 05:35 Cloudy 75 24 73 23 94 94 S 8 13 29.94 1014 10 16.09344 0 0
5:55 am 05:55 Cloudy 75 24 73 23 94 94 SSW 9 15 29.94 1014 10 16.09344 0 0
6:15 am 06:15 Cloudy 75 24 73 23 94 94 SSW 9 15 29.94 1014 10 16.09344 0 0
6:35 am 06:35 Cloudy 75 24 73 23 94 94 undefined N/A 29.94 1014 10 16.09344 0 0
6:55 am 06:55 Cloudy 75 24 73 23 94 94 SSW 7 11 29.94 1014 10 16.09344 0 0
7:15 am 07:15 Cloudy 75 24 73 23 94 94 S 7 11 29.94 1014 10 16.09344 0 0
7:35 am 07:35 Cloudy 77 25 73 23 89 89 S 9 15 29.97 1015 10 16.09344 0 0
7:55 am 07:55 Cloudy 77 25 73 23 89 89 SSW 9 15 29.94 1014 10 16.09344 0 0
8:15 am 08:15 Cloudy 77 25 73 23 89 89 SSW 10 17 29.97 1015 10 16.09344 0 0
8:35 am 08:35 Cloudy 79 26 73 23 84 84 S 8 13 29.94 1014 10 16.09344 0 0
8:55 am 08:55 Mostly Cloudy 79 26 73 23 84 84 S 9 15 29.94 1014 10 16.09344 0 0
9:15 am 09:15 Mostly Cloudy 81 27 75 24 84 84 SW 9 15 29.94 1014 10 16.09344 0 0
9:35 am 09:35 Cloudy 81 27 73 23 79 79 SSW 10 17 29.94 1014 10 16.09344 0 0
9:55 am 09:55 Cloudy 81 27 73 23 79 79 SSW 8 13 29.94 1014 10 16.09344 0 0
10:15 am 10:15 Cloudy 82 28 73 23 74 74 SSW 10 17 29.94 1014 10 16.09344 0 0
10:35 am 10:35 Cloudy 84 29 73 23 70 70 SSW 12 19 29.94 1014 10 16.09344 0 0
10:55 am 10:55 Cloudy 84 29 73 23 70 70 SSW 10 17 29.94 1014 10 16.09344 0 0
11:15 am 11:15 Mostly Cloudy 86 30 75 24 70 70 SSW 10 17 29.91 1013 10 16.09344 0 0
11:35 am 11:35 Mostly Cloudy 86 30 73 23 66 66 S 9 15 29.91 1013 10 16.09344 0 0
11:55 am 11:55 Mostly Cloudy 88 31 75 24 66 66 SSW 10 17 29.91 1013 10 16.09344 0 0
12:15 pm 12:15 Partly Cloudy 90 32 75 24 63 63 SSW 7 11 29.91 1013 10 16.09344 0 0
12:35 pm 12:35 Mostly Cloudy 90 32 75 24 63 63 SW 8 13 29.91 1013 10 16.09344 0 0
12:55 pm 12:55 Cloudy 88 31 75 24 66 66 S 8 13 29.91 1013 10 16.09344 0 0
1:15 pm 13:15 Mostly Cloudy 90 32 73 23 59 59 S 12 19 29.88 1012 10 16.09344 0 0
1:35 pm 13:35 Mostly Cloudy 90 32 73 23 59 59 S 9 15 29.88 1012 10 16.09344 0 0
1:55 pm 13:55 Mostly Cloudy 90 32 73 23 59 59 SSW 12 19 29.88 1012 10 16.09344 0 0
2:15 pm 14:15 Mostly Cloudy 91 33 75 24 59 59 SW 7 11 29.85 1011 10 16.09344 0 0
2:35 pm 14:35 Cloudy with Nearby Thunderstorms 86 30 77 25 75 75 W 17 28 29.88 1012 10 16.09344 0 0
2:55 pm 14:55 Cloudy with Thunderstorms 77 25 73 23 89 89 SW 18 30 29.91 1013 7 11.265408 0.08 2.032
3:15 pm 15:15 Partly Cloudy with Thunderstorms 77 25 75 24 94 94 W 6 9 29.91 1013 10 16.09344 0 0
3:35 pm 15:35 Sunny with Nearby Thunderstorms 82 28 77 25 84 84 NW 8 13 29.88 1012 10 16.09344 0 0
3:55 pm 15:55 Sunny 86 30 77 25 75 75 SW 5 7 29.88 1012 10 16.09344 0 0
4:15 pm 16:15 Partly Cloudy 86 30 77 25 75 75 WSW 3 6 29.88 1012 10 16.09344 0 0
4:35 pm 16:35 Partly Cloudy 90 32 77 25 67 67 WSW 5 7 29.88 1012 10 16.09344 0 0
4:55 pm 16:55 Sunny 91 33 75 24 59 59 NNW 7 11 29.85 1011 10 16.09344 0 0
5:15 pm 17:15 Sunny 91 33 73 23 56 56 WNW 6 9 29.85 1011 10 16.09344 0 0
5:35 pm 17:35 Sunny 91 33 68 20 46 46 WNW 8 13 29.85 1011 10 16.09344 0 0
5:55 pm 17:55 Sunny 91 33 68 20 46 46 NW 10 17 29.85 1011 10 16.09344 0 0
6:15 pm 18:15 Sunny 91 33 68 20 46 46 NNW 10 17 29.85 1011 10 16.09344 0 0
6:35 pm 18:35 Sunny 91 33 68 20 46 46 NNW 8 13 29.85 1011 10 16.09344 0 0
6:55 pm 18:55 Sunny 90 32 66 19 46 46 N 7 11 29.88 1012 10 16.09344 0 0
7:15 pm 19:15 Sunny 90 32 68 20 49 49 NNW 6 9 29.88 1012 10 16.09344 0 0
7:35 pm 19:35 Sunny 90 32 68 20 49 49 NNW 7 11 29.88 1012 10 16.09344 0 0
7:55 pm 19:55 Partly Cloudy 86 30 72 22 62 62 SSW 9 15 29.94 1014 10 16.09344 0 0
8:15 pm 20:15 Sunny 86 30 68 20 55 55 NNW 6 9 29.91 1013 10 16.09344 0 0
8:35 pm 20:35 Sunny 86 30 66 19 52 52 N 5 7 29.91 1013 10 16.09344 0 0
8:55 pm 20:55 Clear 84 29 66 19 55 55 NW 3 6 29.94 1014 10 16.09344 0 0
9:15 pm 21:15 Clear 81 27 70 21 70 70 NW 5 7 29.94 1014 10 16.09344 0 0
9:35 pm 21:35 Clear 81 27 68 20 66 66 NW 9 15 29.97 1015 10 16.09344 0 0
9:55 pm 21:55 Clear 81 27 66 19 62 62 NNW 8 13 29.97 1015 10 16.09344 0 0
10:15 pm 22:15 Clear 82 28 66 19 58 58 NNW 6 9 29.97 1015 10 16.09344 0 0
10:35 pm 22:35 Clear 81 27 66 19 62 62 Calm 29.97 1015 10 16.09344 0 0
10:55 pm 22:55 Clear 81 27 68 20 66 66 Calm 29.97 1015 10 16.09344 0 0
11:15 pm 23:15 Clear 79 26 68 20 70 70 Calm 29.97 1015 10 16.09344 0 0
11:35 pm 23:35 Clear 79 26 68 20 70 70 Calm 29.97 1015 10 16.09344 0 0
11:55 pm 23:55 Clear 79 26 68 20 70 70 Calm 29.97 1015 10 16.09344 0 0

Powered by AerisWeather